Flag for U.S.A. Weather past 2 weeks in Long Beach, California, U.S.A.

Now
58 °F

Clear.


Feels Like: 58 °F
Forecast: 56 / 72 °F
Wind: No wind

Location: Long Beach Airport


UV Index: 5 (Moderate)

Visibility: 8 mi


Pressure: 30.03 "Hg

Humidity: 81%

Dew point: 52 °F

Location of Long BeachLocation

Historic Weather in Long Beach

°F

Long Beach temperature yesterday

Maximum temperature yesterday: 74 °F (at 1:53 PM)
Minimum temperature yesterday: 57 °F (at 5:53 AM)
Average temperature yesterday: 64 °F

Past Weeks' High & Low Weather Summary

 TemperatureHumidityPressure
High90 °F (Apr 8, 2:53 PM)100% (Apr 10, 9:01 AM)30.10 "Hg (Apr 10, 9:01 AM)
Low51 °F (Apr 5, 5:53 AM)14% (Apr 8, 2:53 PM)29.79 "Hg (Apr 16, 5:53 PM)
Average64 °F59%29.96 "Hg
* Reported Apr 5 4:53 AM — Apr 20 4:53 AM, Long Beach, Weather by CustomWeather, © 2014

Note: Actual official high and low records may vary slightly from our data, if they occured in-between our weather recording intervals... More about our weather records

Advertising

Historic Weather Conditions — Data for Previous 24 hours

 ConditionsComfort  
Time TempWeatherWind HumidityBarometerVisibility
4:53 AM
Apr 20
59 °FClear.5 mph81%30.02 "Hg8 mi
3:53 AM60 °FPassing clouds.5 mph78%30.03 "Hg9 mi
2:53 AM61 °FOvercast.5 mph78%30.04 "Hg10 mi
1:53 AM60 °FLow clouds.No wind80%30.04 "Hg9 mi
12:53 AM60 °FPassing clouds.5 mph78%30.05 "Hg9 mi
11:53 PM
Apr 19
61 °FClear.No wind75%30.05 "Hg10 mi
10:53 PM61 °FClear.3 mph75%30.04 "Hg10 mi
9:53 PM60 °FClear.3 mph78%30.02 "Hg10 mi
8:53 PM63 °FClear.3 mph65%30.01 "Hg10 mi
7:53 PM63 °FSunny.3 mph65%29.99 "Hg10 mi
6:53 PM65 °FSunny.14 mph61%29.98 "Hg10 mi
5:53 PM69 °FSunny.13 mph53%29.97 "Hg10 mi
4:53 PM70 °FSunny.14 mph51%29.97 "Hg10 mi
3:53 PM73 °FSunny.9 mph46%29.96 "Hg10 mi
2:53 PM73 °FSunny.12 mph46%29.98 "Hg10 mi
1:53 PM74 °FSunny.9 mph45%29.99 "Hg10 mi
12:53 PM71 °FSunny.5 mph51%29.99 "Hg10 mi
11:53 AM69 °FSunny.8 mph55%30.01 "Hg10 mi
10:53 AM68 °FPassing clouds.8 mph59%30.01 "Hg9 mi
9:53 AM67 °FSunny.3 mph61%30.00 "Hg9 mi
8:53 AM63 °FSunny.3 mph73%29.98 "Hg7 mi
7:53 AM60 °FSunny.3 mph83%29.98 "Hg6 mi
6:53 AM57 °FHaze.No wind83%29.96 "Hg6 mi
Weather by CustomWeather, © 2014

See weather overview